TimeCST,TemperatureF,Dew PointF,Humidity,Sea Level PressureIn,VisibilityMPH,Wind Direction,Wind SpeedMPH,Gust SpeedMPH,PrecipitationIn,Events,Conditions,WindDirDegrees,DateUTC
12:01 AM,33.8,26.6,75,30.26,10.0,SSE,3.5,-,N/A,,Overcast,160,2012-11-14 06:01:00
12:21 AM,33.8,26.6,75,30.26,10.0,Calm,Calm,-,N/A,,Overcast,0,2012-11-14 06:21:00
12:41 AM,33.8,26.6,75,30.26,10.0,SSE,3.5,-,N/A,,Overcast,160,2012-11-14 06:41:00
1:01 AM,33.8,26.6,75,30.26,10.0,SSE,3.5,-,N/A,,Overcast,160,2012-11-14 07:01:00
1:21 AM,33.8,26.6,75,30.26,10.0,Calm,Calm,-,N/A,,Overcast,0,2012-11-14 07:21:00
1:41 AM,33.8,26.6,75,30.25,10.0,Calm,Calm,-,N/A,,Overcast,0,2012-11-14 07:41:00
2:01 AM,33.8,26.6,75,30.26,10.0,Calm,Calm,-,N/A,,Overcast,0,2012-11-14 08:01:00
2:19 AM,33.8,26.6,75,30.26,10.0,Calm,Calm,-,N/A,,Overcast,0,2012-11-14 08:19:00
2:41 AM,33.8,26.6,75,30.26,10.0,Calm,Calm,-,N/A,,Overcast,0,2012-11-14 08:41:00
3:01 AM,32.0,26.6,80,30.26,10.0,Calm,Calm,-,N/A,,Overcast,0,2012-11-14 09:01:00
3:21 AM,33.8,28.4,81,30.26,10.0,Calm,Calm,-,N/A,,Overcast,0,2012-11-14 09:21:00
3:41 AM,32.0,26.6,80,30.26,10.0,Calm,Calm,-,N/A,,Overcast,0,2012-11-14 09:41:00
4:01 AM,32.0,26.6,80,30.26,10.0,Calm,Calm,-,N/A,,Overcast,0,2012-11-14 10:01:00
4:21 AM,32.0,26.6,80,30.26,10.0,Calm,Calm,-,N/A,,Overcast,0,2012-11-14 10:21:00
4:41 AM,32.0,26.6,80,30.25,10.0,Calm,Calm,-,N/A,,Overcast,0,2012-11-14 10:41:00
5:01 AM,32.0,28.4,87,30.25,10.0,Calm,Calm,-,N/A,,Overcast,0,2012-11-14 11:01:00
5:21 AM,33.8,26.6,75,30.25,10.0,Calm,Calm,-,N/A,,Overcast,0,2012-11-14 11:21:00
5:41 AM,32.0,26.6,80,30.25,10.0,Calm,Calm,-,N/A,,Overcast,0,2012-11-14 11:41:00
6:01 AM,32.0,26.6,80,30.26,10.0,Calm,Calm,-,N/A,,Overcast,0,2012-11-14 12:01:00
6:21 AM,32.0,26.6,80,30.25,10.0,Calm,Calm,-,N/A,,Mostly Cloudy,0,2012-11-14 12:21:00
6:41 AM,32.0,26.6,80,30.25,10.0,Calm,Calm,-,N/A,,Overcast,0,2012-11-14 12:41:00
7:01 AM,32.0,26.6,80,30.25,10.0,Calm,Calm,-,N/A,,Overcast,0,2012-11-14 13:01:00
7:21 AM,32.0,26.6,80,30.25,10.0,Calm,Calm,-,N/A,,Mostly Cloudy,0,2012-11-14 13:21:00
7:41 AM,30.2,26.6,86,30.25,10.0,Calm,Calm,-,N/A,,Scattered Clouds,0,2012-11-14 13:41:00
8:01 AM,32.0,28.4,87,30.25,10.0,Calm,Calm,-,N/A,,Scattered Clouds,0,2012-11-14 14:01:00
8:21 AM,32.0,28.4,87,30.25,10.0,Calm,Calm,-,N/A,,Clear,0,2012-11-14 14:21:00
8:41 AM,33.8,28.4,81,30.24,10.0,SSE,4.6,-,N/A,,Clear,160,2012-11-14 14:41:00
9:01 AM,35.6,28.4,75,30.25,10.0,South,5.8,-,N/A,,Clear,190,2012-11-14 15:01:00
9:21 AM,35.6,28.4,75,30.25,10.0,South,5.8,-,N/A,,Clear,170,2012-11-14 15:21:00
9:41 AM,35.6,28.4,75,30.25,10.0,South,4.6,-,N/A,,Clear,170,2012-11-14 15:41:00
10:01 AM,35.6,28.4,75,30.25,10.0,South,4.6,-,N/A,,Clear,180,2012-11-14 16:01:00
10:21 AM,35.6,28.4,75,30.25,10.0,South,4.6,-,N/A,,Clear,170,2012-11-14 16:21:00
10:41 AM,37.4,28.4,70,30.25,10.0,South,4.6,-,N/A,,Scattered Clouds,170,2012-11-14 16:41:00
11:01 AM,37.4,28.4,70,30.24,10.0,South,5.8,-,N/A,,Clear,170,2012-11-14 17:01:00
11:21 AM,41.0,30.2,65,30.24,10.0,South,6.9,-,N/A,,Clear,170,2012-11-14 17:21:00
11:41 AM,41.0,28.4,61,30.23,10.0,South,4.6,-,N/A,,Scattered Clouds,170,2012-11-14 17:41:00
12:01 PM,41.0,28.4,61,30.22,10.0,South,5.8,-,N/A,,Scattered Clouds,190,2012-11-14 18:01:00
12:21 PM,42.8,30.2,61,30.22,10.0,SSE,5.8,-,N/A,,Clear,160,2012-11-14 18:21:00
12:41 PM,44.6,30.2,57,30.21,10.0,South,6.9,-,N/A,,Clear,170,2012-11-14 18:41:00
1:01 PM,44.6,28.4,53,30.21,10.0,South,6.9,-,N/A,,Clear,190,2012-11-14 19:01:00
1:21 PM,46.4,28.4,50,30.20,10.0,SSW,6.9,-,N/A,,Clear,200,2012-11-14 19:21:00
1:41 PM,44.6,28.4,53,30.20,10.0,SSW,10.4,-,N/A,,Clear,200,2012-11-14 19:41:00
2:01 PM,46.4,28.4,50,30.20,10.0,South,8.1,-,N/A,,Clear,180,2012-11-14 20:01:00
2:21 PM,46.4,28.4,50,30.19,10.0,SW,9.2,-,N/A,,Clear,220,2012-11-14 20:21:00
2:41 PM,46.4,30.2,53,30.19,10.0,South,9.2,-,N/A,,Clear,190,2012-11-14 20:41:00
3:01 PM,44.6,28.4,53,30.18,10.0,South,8.1,-,N/A,,Clear,190,2012-11-14 21:01:00
3:21 PM,46.4,28.4,50,30.18,10.0,SSW,6.9,-,N/A,,Clear,210,2012-11-14 21:21:00
3:41 PM,46.4,28.4,50,30.18,10.0,SW,6.9,-,N/A,,Clear,220,2012-11-14 21:41:00
4:01 PM,44.6,28.4,53,30.18,10.0,SSW,6.9,-,N/A,,Clear,200,2012-11-14 22:01:00
4:21 PM,44.6,28.4,53,30.17,10.0,South,5.8,-,N/A,,Clear,180,2012-11-14 22:21:00
4:41 PM,44.6,30.2,57,30.17,10.0,SSW,5.8,-,N/A,,Clear,210,2012-11-14 22:41:00
5:01 PM,41.0,28.4,61,30.17,10.0,South,3.5,-,N/A,,Clear,170,2012-11-14 23:01:00
5:21 PM,42.8,28.4,57,30.17,10.0,South,3.5,-,N/A,,Clear,170,2012-11-14 23:21:00
5:41 PM,41.0,28.4,61,30.17,10.0,SSE,3.5,-,N/A,,Clear,150,2012-11-14 23:41:00
6:01 PM,37.4,26.6,65,30.17,10.0,SSE,3.5,-,N/A,,Clear,160,2012-11-15 00:01:00
6:21 PM,37.4,26.6,65,30.17,10.0,Calm,Calm,-,N/A,,Clear,0,2012-11-15 00:21:00
6:41 PM,33.8,26.6,75,30.17,10.0,Calm,Calm,-,N/A,,Clear,0,2012-11-15 00:41:00
7:01 PM,32.0,26.6,80,30.17,10.0,Calm,Calm,-,N/A,,Clear,0,2012-11-15 01:01:00
7:21 PM,32.0,26.6,80,30.17,10.0,Calm,Calm,-,N/A,,Clear,0,2012-11-15 01:21:00
7:41 PM,32.0,26.6,80,30.17,10.0,Calm,Calm,-,N/A,,Clear,0,2012-11-15 01:41:00
8:01 PM,30.2,24.8,80,30.17,10.0,Calm,Calm,-,N/A,,Clear,0,2012-11-15 02:01:00
8:41 PM,28.4,24.8,86,30.16,10.0,Calm,Calm,-,N/A,,Clear,0,2012-11-15 02:41:00
9:01 PM,28.4,24.8,86,30.16,10.0,Calm,Calm,-,N/A,,Clear,0,2012-11-15 03:01:00
9:20 PM,28.4,24.8,86,30.16,10.0,Calm,Calm,-,N/A,,Clear,0,2012-11-15 03:20:00
9:41 PM,28.4,24.8,86,30.16,10.0,Calm,Calm,-,N/A,,Clear,0,2012-11-15 03:41:00
10:01 PM,28.4,24.8,86,30.15,10.0,Calm,Calm,-,N/A,,Clear,0,2012-11-15 04:01:00
10:21 PM,26.6,24.8,93,30.15,7.0,Calm,Calm,-,N/A,,Clear,0,2012-11-15 04:21:00
10:41 PM,26.6,24.8,93,30.15,7.0,Calm,Calm,-,N/A,,Clear,0,2012-11-15 04:41:00
11:01 PM,26.6,24.8,93,30.14,10.0,Calm,Calm,-,N/A,,Clear,0,2012-11-15 05:01:00
11:10 PM,26.6,24.8,93,30.14,10.0,Calm,Calm,-,N/A,,Clear,0,2012-11-15 05:10:00
11:44 PM,26.6,24.8,93,30.14,10.0,Calm,Calm,-,N/A,,Mostly Cloudy,0,2012-11-15 05:44:00